| time (UTC) | temp F | wind direction | speed MPH | gust MPH | rain 1hr in | rain 24hr in | rain mn in | humidity % | barometer mb |
| 20260507082005 | 79 | 21 | 8.0 | 19.0 | 0.00 | 0.00 | 0.00 | 70 | 1006.4 |
| 20260507081503 | 79 | 12 | 8.0 | 19.0 | 0.00 | 0.00 | 0.00 | 70 | 1006.5 |
| 20260507080954 | 79 | 326 | 10.0 | 20.0 | 0.00 | 0.00 | 0.00 | 70 | 1006.5 |
| 20260507080432 | 79 | 303 | 9.0 | 20.0 | 0.00 | 0.00 | 0.00 | 70 | 1006.4 |
| 20260507075930 | 79 | 337 | 8.0 | 19.0 | 0.00 | 0.00 | 0.00 | 71 | 1006.4 |
| 20260507075430 | 79 | 345 | 7.0 | 19.0 | 0.00 | 0.00 | 0.00 | 71 | 1006.6 |
| 20260507074928 | 79 | 334 | 7.0 | 15.0 | 0.00 | 0.00 | 0.00 | 71 | 1006.6 |
| 20260507074404 | 79 | 314 | 8.0 | 20.0 | 0.00 | 0.00 | 0.00 | 71 | 1006.6 |
| 20260507074134 | 79 | 334 | 9.0 | 20.0 | 0.00 | 0.00 | 0.00 | 71 | 1006.6 |
| 20260507073358 | 79 | 20 | 8.0 | 17.0 | 0.00 | 0.00 | 0.00 | 71 | 1006.8 |
| 20260507072856 | 79 | 11 | 8.0 | 20.0 | 0.00 | 0.00 | 0.00 | 71 | 1007.0 |
| 20260507072331 | 79 | 3 | 9.0 | 20.0 | 0.00 | 0.00 | 0.00 | 71 | 1007.1 |
| 20260507071829 | 78 | 330 | 7.0 | 14.0 | 0.00 | 0.00 | 0.00 | 73 | 1007.2 |
| 20260507071326 | 78 | 8 | 6.0 | 13.0 | 0.00 | 0.00 | 0.00 | 73 | 1007.2 |
| 20260507070822 | 78 | 0 | 6.0 | 15.0 | 0.00 | 0.00 | 0.00 | 73 | 1007.3 |
| 20260507070322 | 78 | 343 | 6.0 | 15.0 | 0.00 | 0.00 | 0.00 | 73 | 1007.4 |
| 20260507065820 | 78 | 356 | 7.0 | 17.0 | 0.00 | 0.00 | 0.00 | 73 | 1007.4 |
| 20260507065316 | 78 | 351 | 6.0 | 17.0 | 0.00 | 0.00 | 0.00 | 74 | 1007.5 |
| 20260507064818 | 78 | 8 | 6.0 | 14.0 | 0.00 | 0.00 | 0.00 | 74 | 1007.7 |
| 20260507064251 | 78 | 340 | 7.0 | 15.0 | 0.00 | 0.00 | 0.00 | 74 | 1007.8 |
| 20260507063748 | 78 | 332 | 8.0 | 15.0 | 0.00 | 0.00 | 0.00 | 73 | 1007.8 |
| 20260507063501 | 78 | 3 | 7.0 | 14.0 | 0.00 | 0.00 | 0.00 | 74 | 1007.9 |
| 20260507062731 | 78 | 351 | 6.0 | 14.0 | 0.00 | 0.00 | 0.00 | 74 | 1007.9 |
| 20260507062228 | 78 | 343 | 6.0 | 16.0 | 0.00 | 0.00 | 0.00 | 74 | 1008.1 |
| 20260507061728 | 78 | 350 | 5.0 | 16.0 | 0.00 | 0.00 | 0.00 | 75 | 1008.0 |
| 20260507061218 | 78 | 0 | 5.0 | 11.0 | 0.00 | 0.00 | 0.00 | 75 | 1008.0 |
| 20260507060652 | 78 | 355 | 5.0 | 11.0 | 0.00 | 0.00 | 0.00 | 75 | 1008.1 |
| 20260507060133 | 78 | 14 | 5.0 | 11.0 | 0.00 | 0.00 | 0.00 | 74 | 1008.1 |
| 20260507055633 | 78 | 352 | 5.0 | 11.0 | 0.00 | 0.00 | 0.00 | 74 | 1008.1 |
| 20260507055336 | 78 | 0 | 6.0 | 13.0 | 0.00 | 0.00 | 0.00 | 74 | 1008.2 |
| 20260507054544 | 78 | 343 | 6.0 | 13.0 | 0.00 | 0.00 | 0.00 | 74 | 1008.4 |
| 20260507054044 | 78 | 14 | 6.0 | 12.0 | 0.00 | 0.00 | 0.00 | 74 | 1008.6 |
| 20260507053514 | 78 | 20 | 6.0 | 12.0 | 0.00 | 0.00 | 0.00 | 75 | 1008.5 |
| 20260507053011 | 78 | 357 | 5.0 | 12.0 | 0.00 | 0.00 | 0.00 | 76 | 1008.7 |
| 20260507052447 | 77 | 19 | 4.0 | 14.0 | 0.00 | 0.00 | 0.00 | 77 | 1008.9 |
| 20260507051947 | 76 | 1 | 4.0 | 14.0 | 0.00 | 0.00 | 0.00 | 80 | 1009.2 |
| 20260507051419 | 75 | 339 | 3.0 | 15.0 | 0.00 | 0.00 | 0.00 | 82 | 1009.3 |
| 20260507050905 | 74 | 2 | 3.0 | 15.0 | 0.00 | 0.00 | 0.00 | 84 | 1009.3 |
| 20260507050355 | 73 | 26 | 2.0 | 10.0 | 0.00 | 0.00 | 0.00 | 86 | 1009.4 |
| 20260507045831 | 72 | 15 | 2.0 | 10.0 | 0.00 | 0.00 | 0.00 | 89 | 1009.5 |
| 20260507045330 | 71 | 24 | 2.0 | 8.0 | 0.00 | 0.00 | 0.00 | 93 | 1009.5 |
| 20260507044828 | 70 | 70 | 3.0 | 11.0 | 0.00 | 0.00 | 0.00 | 95 | 1009.6 |
| 20260507044327 | 69 | 52 | 2.0 | 11.0 | 0.00 | 0.00 | 0.00 | 98 | 1009.6 |
| 20260507044039 | 68 | 304 | 0.0 | 5.0 | 0.00 | 0.00 | 0.00 | 98 | 1009.8 |
| 20260507043800 | 68 | 347 | 1.0 | 7.0 | 0.00 | 0.00 | 0.00 | 98 | 1009.7 |
| 20260507042735 | 68 | 56 | 0.0 | 5.0 | 0.00 | 0.00 | 0.00 | 98 | 1009.7 |
| 20260507042234 | 68 | 347 | 0.0 | 3.0 | 0.00 | 0.00 | 0.00 | 98 | 1009.9 |
| 20260507041729 | 67 | 194 | 0.0 | 3.0 | 0.00 | 0.00 | 0.00 | 98 | 1010.0 |
| 20260507041458 | 67 | 209 | 0.0 | 3.0 | 0.00 | 0.00 | 0.00 | 97 | 1010.1 |
| 20260507040726 | 67 | 214 | 0.0 | 1.0 | 0.00 | 0.00 | 0.00 | 97 | 1010.2 |
| 20260507040225 | 67 | 97 | 0.0 | 0.0 | 0.00 | 0.00 | 0.00 | 97 | 1010.3 |
| 20260507035726 | 67 | 97 | 0.0 | 0.0 | 0.00 | 0.00 | 0.00 | 97 | 1010.4 |
| 20260507035202 | 67 | 97 | 0.0 | 2.0 | 0.00 | 0.00 | 0.00 | 97 | 1010.3 |
| 20260507034924 | 67 | 97 | 0.0 | 2.0 | 0.00 | 0.00 | 0.00 | 96 | 1010.3 |
| 20260507034136 | 67 | 91 | 0.0 | 2.0 | 0.00 | 0.00 | 0.00 | 97 | 1010.3 |
| 20260507033630 | 67 | 91 | 0.0 | 2.0 | 0.00 | 0.00 | 0.00 | 97 | 1010.4 |
| 20260507033126 | 67 | 305 | 0.0 | 2.0 | 0.00 | 0.00 | 0.00 | 97 | 1010.5 |
| 20260507032858 | 67 | 18 | 0.0 | 0.0 | 0.00 | 0.00 | 0.00 | 96 | 1010.6 |
| 20260507032107 | 67 | 18 | 0.0 | 0.0 | 0.00 | 0.00 | 0.00 | 97 | 1010.7 |
| 20260507031604 | 67 | 18 | 0.0 | 0.0 | 0.00 | 0.00 | 0.00 | 96 | 1010.7 |
| 20260507031106 | 67 | 18 | 0.0 | 0.0 | 0.00 | 0.00 | 0.00 | 96 | 1010.7 |
| 20260507030549 | 67 | 342 | 0.0 | 0.0 | 0.00 | 0.00 | 0.00 | 96 | 1010.9 |
| 20260507030026 | 67 | 342 | 0.0 | 0.0 | 0.00 | 0.00 | 0.00 | 96 | 1011.0 |
| 20260507025458 | 67 | 342 | 0.0 | 0.0 | 0.00 | 0.00 | 0.00 | 95 | 1011.1 |
| 20260507024956 | 67 | 342 | 0.0 | 0.0 | 0.00 | 0.00 | 0.00 | 95 | 1011.1 |
| 20260507024454 | 67 | 342 | 0.0 | 0.0 | 0.00 | 0.00 | 0.00 | 95 | 1011.1 |
| 20260507023930 | 68 | 342 | 0.0 | 0.0 | 0.00 | 0.00 | 0.00 | 95 | 1011.1 |
| 20260507023430 | 68 | 342 | 0.0 | 0.0 | 0.00 | 0.00 | 0.00 | 95 | 1011.2 |
| 20260507022903 | 68 | 342 | 0.0 | 0.0 | 0.00 | 0.00 | 0.00 | 95 | 1011.2 |
| 20260507022400 | 68 | 342 | 0.0 | 0.0 | 0.00 | 0.00 | 0.00 | 95 | 1011.4 |
| 20260507021852 | 68 | 342 | 0.0 | 2.0 | 0.00 | 0.00 | 0.00 | 95 | 1011.3 |
| 20260507021350 | 68 | 342 | 0.0 | 2.0 | 0.00 | 0.00 | 0.00 | 95 | 1011.4 |
| 20260507020851 | 68 | 34 | 0.0 | 1.0 | 0.00 | 0.00 | 0.00 | 95 | 1011.5 |
| 20260507020324 | 68 | 83 | 0.0 | 2.0 | 0.00 | 0.00 | 0.00 | 95 | 1011.4 |
| 20260507015812 | 69 | 25 | 0.0 | 2.0 | 0.00 | 0.00 | 0.00 | 95 | 1011.5 |
| 20260507015247 | 69 | 53 | 0.0 | 2.0 | 0.00 | 0.00 | 0.00 | 95 | 1011.5 |
| 20260507014736 | 69 | 53 | 0.0 | 0.0 | 0.00 | 0.00 | 0.00 | 95 | 1011.4 |
| 20260507014235 | 69 | 53 | 0.0 | 0.0 | 0.00 | 0.00 | 0.00 | 95 | 1011.5 |
| 20260507013708 | 69 | 53 | 0.0 | 0.0 | 0.00 | 0.00 | 0.00 | 95 | 1011.5 |
| 20260507013204 | 69 | 53 | 0.0 | 2.0 | 0.00 | 0.00 | 0.00 | 95 | 1011.5 |
| 20260507012656 | 69 | 53 | 0.0 | 2.0 | 0.00 | 0.00 | 0.00 | 95 | 1011.6 |
| 20260507012129 | 69 | 53 | 0.0 | 0.0 | 0.00 | 0.00 | 0.00 | 95 | 1011.6 |
| 20260507011615 | 69 | 53 | 0.0 | 3.0 | 0.00 | 0.00 | 0.00 | 95 | 1011.8 |
| 20260507011341 | 69 | 53 | 0.0 | 3.0 | 0.00 | 0.00 | 0.00 | 95 | 1011.9 |
| 20260507010612 | 69 | 53 | 1.0 | 4.0 | 0.00 | 0.00 | 0.00 | 94 | 1011.9 |
| 20260507010048 | 69 | 226 | 0.0 | 4.0 | 0.00 | 0.00 | 0.00 | 94 | 1011.8 |
| 20260507005550 | 69 | 320 | 0.0 | 0.0 | 0.00 | 0.00 | 0.00 | 94 | 1011.6 |
| 20260507005043 | 69 | 320 | 0.0 | 0.0 | 0.00 | 0.00 | 0.00 | 94 | 1011.6 |
| 20260507004539 | 70 | 320 | 0.0 | 0.0 | 0.00 | 0.00 | 0.00 | 94 | 1011.7 |
| 20260507004036 | 70 | 320 | 0.0 | 0.0 | 0.00 | 0.00 | 0.00 | 94 | 1011.7 |
| 20260507003758 | 70 | 320 | 0.0 | 0.0 | 0.00 | 0.00 | 0.00 | 94 | 1011.8 |
| 20260507003233 | 70 | 320 | 0.0 | 0.0 | 0.00 | 0.00 | 0.00 | 94 | 1011.8 |
| 20260507002450 | 70 | 320 | 0.0 | 0.0 | 0.00 | 0.00 | 0.00 | 94 | 1011.7 |
| 20260507002211 | 70 | 320 | 0.0 | 0.0 | 0.00 | 0.00 | 0.00 | 94 | 1011.8 |
| 20260507002054 | 70 | 320 | 0.0 | 0.0 | 0.00 | 0.00 | 0.00 | 94 | 1011.9 |
| 20260507000936 | 70 | 320 | 0.0 | 0.0 | 0.00 | 0.00 | 0.00 | 93 | 1011.9 |
| 20260507000435 | 71 | 320 | 0.0 | 0.0 | 0.00 | 0.00 | 0.00 | 93 | 1011.9 |
| 20260507000428 | 71 | 320 | 0.0 | 0.0 | 0.00 | 0.00 | 0.00 | 93 | 1011.8 |
| 20260506235430 | 71 | 320 | 0.0 | 0.0 | 0.00 | 0.00 | 0.00 | 93 | 1011.9 |
| 20260506235148 | 71 | 320 | 0.0 | 0.0 | 0.00 | 0.00 | 0.00 | 93 | 1011.9 |
| 20260506234418 | 71 | 320 | 0.0 | 0.0 | 0.00 | 0.00 | 0.00 | 92 | 1011.9 |
| 20260506233905 | 71 | 320 | 0.0 | 0.0 | 0.00 | 0.00 | 0.00 | 92 | 1011.9 |
| 20260506233404 | 71 | 320 | 0.0 | 0.0 | 0.00 | 0.00 | 0.00 | 92 | 1012.0 |
| 20260506232904 | 71 | 266 | 0.0 | 0.0 | 0.00 | 0.00 | 0.00 | 92 | 1012.0 |
| 20260506232616 | 72 | 266 | 0.0 | 0.0 | 0.00 | 0.00 | 0.00 | 93 | 1011.9 |
| 20260506231818 | 71 | 266 | 0.0 | 0.0 | 0.00 | 0.00 | 0.00 | 93 | 1011.9 |
| 20260506231314 | 71 | 44 | 0.0 | 0.0 | 0.00 | 0.00 | 0.00 | 92 | 1011.8 |
| 20260506230806 | 72 | 44 | 0.0 | 0.0 | 0.00 | 0.00 | 0.00 | 92 | 1011.8 |
| 20260506230247 | 72 | 44 | 0.0 | 0.0 | 0.00 | 0.00 | 0.00 | 92 | 1011.8 |
| 20260506230017 | 72 | 337 | 0.0 | 0.0 | 0.00 | 0.00 | 0.00 | 91 | 1011.6 |
| 20260506225449 | 72 | 337 | 0.0 | 0.0 | 0.00 | 0.00 | 0.00 | 91 | 1011.7 |
| 20260506224718 | 72 | 337 | 0.0 | 0.0 | 0.00 | 0.00 | 0.00 | 91 | 1011.7 |
| 20260506224424 | 72 | 337 | 0.0 | 0.0 | 0.00 | 0.00 | 0.00 | 90 | 1011.7 |
| 20260506223624 | 73 | 337 | 0.0 | 0.0 | 0.00 | 0.00 | 0.00 | 89 | 1011.8 |
| 20260506223109 | 73 | 337 | 0.0 | 0.0 | 0.00 | 0.00 | 0.00 | 88 | 1011.6 |
| 20260506222605 | 73 | 337 | 0.0 | 0.0 | 0.00 | 0.00 | 0.00 | 88 | 1011.6 |
| 20260506222056 | 73 | 337 | 0.0 | 0.0 | 0.00 | 0.00 | 0.00 | 88 | 1011.6 |
| 20260506221829 | 74 | 337 | 0.0 | 0.0 | 0.00 | 0.00 | 0.00 | 87 | 1011.5 |
| 20260506221034 | 74 | 337 | 0.0 | 0.0 | 0.00 | 0.00 | 0.00 | 87 | 1011.6 |
| 20260506220534 | 74 | 337 | 0.0 | 0.0 | 0.00 | 0.00 | 0.00 | 86 | 1011.4 |
| 20260506220026 | 75 | 337 | 0.0 | 0.0 | 0.00 | 0.00 | 0.00 | 85 | 1011.4 |
| 20260506215516 | 75 | 337 | 0.0 | 0.0 | 0.00 | 0.00 | 0.00 | 85 | 1011.6 |
| 20260506215016 | 76 | 337 | 0.0 | 0.0 | 0.00 | 0.00 | 0.00 | 84 | 1011.4 |
| 20260506214516 | 76 | 337 | 0.0 | 0.0 | 0.00 | 0.00 | 0.00 | 83 | 1011.5 |
| 20260506214015 | 76 | 337 | 0.0 | 0.0 | 0.00 | 0.00 | 0.00 | 83 | 1011.4 |
| 20260506213504 | 77 | 337 | 0.0 | 0.0 | 0.00 | 0.00 | 0.00 | 82 | 1011.4 |
| 20260506213236 | 77 | 337 | 0.0 | 0.0 | 0.00 | 0.00 | 0.00 | 81 | 1011.5 |
| 20260506212720 | 78 | 337 | 0.0 | 0.0 | 0.00 | 0.00 | 0.00 | 81 | 1011.5 |
| 20260506212220 | 79 | 337 | 0.0 | 0.0 | 0.00 | 0.00 | 0.00 | 80 | 1011.5 |
| 20260506211426 | 79 | 337 | 0.0 | 0.0 | 0.00 | 0.00 | 0.00 | 78 | 1011.4 |
| 20260506210920 | 80 | 337 | 0.0 | 0.0 | 0.00 | 0.00 | 0.00 | 77 | 1011.4 |
| 20260506210356 | 81 | 337 | 0.0 | 0.0 | 0.00 | 0.00 | 0.00 | 76 | 1011.5 |
| 20260506205833 | 82 | 337 | 0.0 | 0.0 | 0.00 | 0.00 | 0.00 | 76 | 1011.6 |
| 20260506205559 | 82 | 337 | 0.0 | 1.0 | 0.00 | 0.00 | 0.00 | 75 | 1011.6 |
| 20260506204806 | 83 | 337 | 0.0 | 2.0 | 0.00 | 0.00 | 0.00 | 75 | 1011.5 |
| 20260506204303 | 84 | 22 | 0.0 | 1.0 | 0.00 | 0.00 | 0.00 | 74 | 1011.6 |
| 20260506203735 | 85 | 22 | 0.0 | 0.0 | 0.00 | 0.00 | 0.00 | 73 | 1011.7 |
| 20260506203218 | 85 | 22 | 0.0 | 0.0 | 0.00 | 0.00 | 0.00 | 72 | 1011.5 |
| 20260506202657 | 86 | 22 | 0.0 | 0.0 | 0.00 | 0.00 | 0.00 | 71 | 1011.6 |
| 20260506202128 | 87 | 22 | 0.0 | 0.0 | 0.00 | 0.00 | 0.00 | 70 | 1011.6 |
| 20260506201604 | 87 | 22 | 0.0 | 3.0 | 0.00 | 0.00 | 0.00 | 69 | 1011.5 |
| 20260506201039 | 88 | 22 | 0.0 | 3.0 | 0.00 | 0.00 | 0.00 | 67 | 1011.7 |
| 20260506200512 | 89 | 37 | 0.0 | 0.0 | 0.00 | 0.00 | 0.00 | 65 | 1011.6 |
| 20260506195947 | 90 | 37 | 0.0 | 0.0 | 0.00 | 0.00 | 0.00 | 65 | 1011.7 |
| 20260506195420 | 90 | 37 | 0.0 | 2.0 | 0.00 | 0.00 | 0.00 | 65 | 1011.8 |
| 20260506194919 | 90 | 37 | 1.0 | 3.0 | 0.00 | 0.00 | 0.00 | 64 | 1011.9 |
| 20260506194413 | 91 | 10 | 0.0 | 3.0 | 0.00 | 0.00 | 0.00 | 61 | 1011.7 |
| 20260506193850 | 91 | 357 | 0.0 | 3.0 | 0.00 | 0.00 | 0.00 | 62 | 1011.8 |
| 20260506193324 | 91 | 344 | 1.0 | 7.0 | 0.00 | 0.00 | 0.00 | 61 | 1011.8 |
| 20260506192818 | 91 | 18 | 1.0 | 7.0 | 0.00 | 0.00 | 0.00 | 61 | 1011.8 |
| 20260506192250 | 91 | 346 | 1.0 | 3.0 | 0.00 | 0.00 | 0.00 | 64 | 1011.8 |
| 20260506191747 | 91 | 37 | 1.0 | 4.0 | 0.00 | 0.00 | 0.00 | 62 | 1011.7 |
| 20260506191243 | 91 | 36 | 2.0 | 5.0 | 0.00 | 0.00 | 0.00 | 63 | 1011.8 |
| 20260506190718 | 91 | 353 | 1.0 | 5.0 | 0.00 | 0.00 | 0.00 | 61 | 1011.8 |
| 20260506190152 | 91 | 340 | 2.0 | 8.0 | 0.00 | 0.00 | 0.00 | 61 | 1011.8 |
| 20260506185640 | 91 | 328 | 2.0 | 8.0 | 0.00 | 0.00 | 0.00 | 61 | 1012.0 |
| 20260506185410 | 90 | 28 | 1.0 | 6.0 | 0.00 | 0.00 | 0.00 | 63 | 1011.8 |
| 20260506184906 | 90 | 0 | 2.0 | 6.0 | 0.00 | 0.00 | 0.00 | 62 | 1011.8 |
| 20260506184111 | 90 | 15 | 2.0 | 6.0 | 0.00 | 0.00 | 0.00 | 62 | 1011.8 |
| 20260506183559 | 91 | 8 | 2.0 | 6.0 | 0.00 | 0.00 | 0.00 | 61 | 1011.8 |
| 20260506183033 | 90 | 358 | 2.0 | 9.0 | 0.00 | 0.00 | 0.00 | 62 | 1012.0 |
| 20260506182503 | 91 | 37 | 2.0 | 6.0 | 0.00 | 0.00 | 0.00 | 62 | 1012.0 |
| 20260506182226 | 91 | 24 | 2.0 | 8.0 | 0.00 | 0.00 | 0.00 | 61 | 1012.2 |
| 20260506181427 | 91 | 344 | 3.0 | 8.0 | 0.00 | 0.00 | 0.00 | 61 | 1012.1 |
| 20260506181155 | 91 | 359 | 4.0 | 10.0 | 0.00 | 0.00 | 0.00 | 61 | 1012.2 |
| 20260506180421 | 91 | 11 | 4.0 | 10.0 | 0.00 | 0.00 | 0.00 | 59 | 1012.3 |
| 20260506175853 | 92 | 15 | 3.0 | 8.0 | 0.00 | 0.00 | 0.00 | 60 | 1012.3 |
| 20260506175344 | 92 | 338 | 3.0 | 8.0 | 0.00 | 0.00 | 0.00 | 60 | 1012.4 |
| 20260506174843 | 92 | 359 | 3.0 | 8.0 | 0.00 | 0.00 | 0.00 | 60 | 1012.5 |
| 20260506174615 | 92 | 66 | 4.0 | 8.0 | 0.00 | 0.00 | 0.00 | 61 | 1012.5 |
| 20260506173814 | 92 | 349 | 4.0 | 10.0 | 0.00 | 0.00 | 0.00 | 61 | 1012.7 |
| 20260506173248 | 92 | 347 | 4.0 | 11.0 | 0.00 | 0.00 | 0.00 | 61 | 1012.8 |
| 20260506172732 | 92 | 335 | 4.0 | 11.0 | 0.00 | 0.00 | 0.00 | 61 | 1012.8 |
| 20260506172231 | 91 | 335 | 3.0 | 10.0 | 0.00 | 0.00 | 0.00 | 62 | 1012.9 |
| 20260506171730 | 91 | 16 | 3.0 | 11.0 | 0.00 | 0.00 | 0.00 | 62 | 1013.0 |
| 20260506171230 | 91 | 335 | 5.0 | 12.0 | 0.00 | 0.00 | 0.00 | 62 | 1012.9 |
| 20260506170704 | 91 | 303 | 6.0 | 11.0 | 0.00 | 0.00 | 0.00 | 61 | 1013.0 |
| 20260506170408 | 91 | 325 | 6.0 | 13.0 | 0.00 | 0.00 | 0.00 | 61 | 1013.1 |
| 20260506165627 | 90 | 323 | 5.0 | 13.0 | 0.00 | 0.00 | 0.00 | 61 | 1013.1 |
| 20260506165353 | 90 | 327 | 5.0 | 12.0 | 0.00 | 0.00 | 0.00 | 63 | 1013.3 |
| 20260506164618 | 90 | 335 | 5.0 | 12.0 | 0.00 | 0.00 | 0.00 | 62 | 1013.2 |
| 20260506164048 | 90 | 8 | 4.0 | 12.0 | 0.00 | 0.00 | 0.00 | 61 | 1013.4 |
| 20260506163523 | 90 | 322 | 4.0 | 12.0 | 0.00 | 0.00 | 0.00 | 63 | 1013.4 |
| 20260506163227 | 89 | 323 | 4.0 | 12.0 | 0.00 | 0.00 | 0.00 | 62 | 1013.6 |
| 20260506162427 | 89 | 342 | 5.0 | 12.0 | 0.00 | 0.00 | 0.00 | 64 | 1013.6 |
| 20260506161859 | 89 | 318 | 4.0 | 12.0 | 0.00 | 0.00 | 0.00 | 62 | 1013.8 |
| 20260506161618 | 90 | 331 | 2.0 | 7.0 | 0.00 | 0.00 | 0.00 | 64 | 1013.8 |
| 20260506160848 | 89 | 346 | 3.0 | 9.0 | 0.00 | 0.00 | 0.00 | 64 | 1014.0 |
| 20260506160337 | 89 | 30 | 4.0 | 9.0 | 0.00 | 0.00 | 0.00 | 64 | 1014.1 |
| 20260506155820 | 89 | 318 | 4.0 | 15.0 | 0.00 | 0.00 | 0.00 | 65 | 1014.2 |
| 20260506155320 | 89 | 2 | 4.0 | 15.0 | 0.00 | 0.00 | 0.00 | 65 | 1014.3 |
| 20260506155052 | 88 | 59 | 3.0 | 12.0 | 0.00 | 0.00 | 0.00 | 66 | 1014.4 |
| 20260506154324 | 88 | 325 | 5.0 | 11.0 | 0.00 | 0.00 | 0.00 | 66 | 1014.5 |
| 20260506153803 | 87 | 6 | 6.0 | 12.0 | 0.00 | 0.00 | 0.00 | 66 | 1014.5 |
| 20260506153245 | 87 | 341 | 5.0 | 11.0 | 0.00 | 0.00 | 0.00 | 66 | 1014.6 |
| 20260506152742 | 87 | 345 | 4.0 | 11.0 | 0.00 | 0.00 | 0.00 | 67 | 1014.9 |
| 20260506152217 | 87 | 359 | 4.0 | 10.0 | 0.00 | 0.00 | 0.00 | 67 | 1014.9 |
| 20260506151649 | 87 | 0 | 4.0 | 12.0 | 0.00 | 0.00 | 0.00 | 67 | 1015.0 |
| 20260506151125 | 87 | 355 | 4.0 | 12.0 | 0.00 | 0.00 | 0.00 | 68 | 1015.2 |
| 20260506150625 | 86 | 5 | 6.0 | 11.0 | 0.00 | 0.00 | 0.00 | 70 | 1015.2 |
| 20260506150123 | 86 | 22 | 6.0 | 11.0 | 0.00 | 0.00 | 0.00 | 67 | 1015.3 |
| 20260506145626 | 86 | 19 | 5.0 | 14.0 | 0.00 | 0.00 | 0.00 | 68 | 1015.3 |
| 20260506145057 | 86 | 339 | 6.0 | 15.0 | 0.00 | 0.00 | 0.00 | 67 | 1015.4 |
| 20260506144827 | 86 | 9 | 5.0 | 15.0 | 0.00 | 0.00 | 0.00 | 67 | 1015.4 |
| 20260506144543 | 86 | 357 | 5.0 | 10.0 | 0.00 | 0.00 | 0.00 | 68 | 1015.4 |
| 20260506143539 | 85 | 83 | 5.0 | 11.0 | 0.00 | 0.00 | 0.00 | 68 | 1015.5 |
| 20260506143011 | 85 | 8 | 5.0 | 12.0 | 0.00 | 0.00 | 0.00 | 68 | 1015.5 |
| 20260506142506 | 85 | 357 | 5.0 | 12.0 | 0.00 | 0.00 | 0.00 | 69 | 1015.5 |
| 20260506142001 | 85 | 323 | 5.0 | 15.0 | 0.00 | 0.00 | 0.00 | 69 | 1015.6 |
| 20260506141434 | 84 | 336 | 6.0 | 15.0 | 0.00 | 0.00 | 0.00 | 68 | 1015.7 |
| 20260506140930 | 84 | 329 | 4.0 | 12.0 | 0.00 | 0.00 | 0.00 | 70 | 1015.8 |
| 20260506140426 | 84 | 6 | 3.0 | 12.0 | 0.00 | 0.00 | 0.00 | 71 | 1015.8 |
| 20260506135901 | 83 | 341 | 3.0 | 12.0 | 0.00 | 0.00 | 0.00 | 71 | 1015.9 |
| 20260506135349 | 83 | 323 | 3.0 | 8.0 | 0.00 | 0.00 | 0.00 | 72 | 1016.0 |
| 20260506134849 | 82 | 332 | 2.0 | 7.0 | 0.00 | 0.00 | 0.00 | 72 | 1016.1 |
| 20260506134323 | 81 | 13 | 1.0 | 7.0 | 0.00 | 0.00 | 0.00 | 76 | 1016.3 |
| 20260506133812 | 81 | 325 | 1.0 | 7.0 | 0.00 | 0.00 | 0.00 | 74 | 1016.3 |
| 20260506133311 | 81 | 296 | 2.0 | 7.0 | 0.00 | 0.00 | 0.00 | 79 | 1016.3 |
| 20260506133038 | 81 | 112 | 1.0 | 5.0 | 0.00 | 0.00 | 0.00 | 77 | 1016.3 |
| 20260506132534 | 80 | 1 | 1.0 | 4.0 | 0.00 | 0.00 | 0.00 | 75 | 1016.2 |
| 20260506131757 | 80 | 123 | 2.0 | 7.0 | 0.00 | 0.00 | 0.00 | 75 | 1016.2 |
| 20260506131251 | 80 | 141 | 2.0 | 7.0 | 0.00 | 0.00 | 0.00 | 76 | 1016.2 |
| 20260506130750 | 80 | 90 | 1.0 | 4.0 | 0.00 | 0.00 | 0.00 | 80 | 1016.3 |
| 20260506130248 | 79 | 107 | 1.0 | 3.0 | 0.00 | 0.00 | 0.00 | 80 | 1016.4 |
| 20260506125717 | 79 | 124 | 1.0 | 3.0 | 0.00 | 0.00 | 0.00 | 84 | 1016.5 |
| 20260506125150 | 78 | 92 | 0.0 | 2.0 | 0.00 | 0.00 | 0.00 | 84 | 1016.6 |
| 20260506124624 | 77 | 227 | 0.0 | 2.0 | 0.00 | 0.00 | 0.00 | 80 | 1016.7 |
| 20260506124119 | 77 | 298 | 1.0 | 4.0 | 0.00 | 0.00 | 0.00 | 84 | 1016.9 |
| 20260506123553 | 76 | 318 | 1.0 | 4.0 | 0.00 | 0.00 | 0.00 | 82 | 1016.9 |
| 20260506123026 | 76 | 289 | 0.0 | 3.0 | 0.00 | 0.00 | 0.00 | 84 | 1016.9 |
| 20260506122459 | 75 | 249 | 1.0 | 6.0 | 0.00 | 0.00 | 0.00 | 86 | 1016.8 |
| 20260506121956 | 75 | 306 | 1.0 | 6.0 | 0.00 | 0.00 | 0.00 | 86 | 1016.8 |
| 20260506121452 | 74 | 310 | 0.0 | 4.0 | 0.00 | 0.00 | 0.00 | 88 | 1016.6 |
| 20260506120923 | 74 | 217 | 0.0 | 0.0 | 0.00 | 0.00 | 0.00 | 92 | 1016.8 |
| 20260506120356 | 73 | 166 | 0.0 | 0.0 | 0.00 | 0.00 | 0.00 | 92 | 1016.8 |
| 20260506120101 | 73 | 106 | 0.0 | 1.0 | 0.00 | 0.00 | 0.00 | 92 | 1016.8 |
| 20260506115327 | 72 | 124 | 0.0 | 1.0 | 0.00 | 0.00 | 0.00 | 93 | 1016.6 |
| 20260506114758 | 72 | 177 | 0.0 | 1.0 | 0.00 | 0.00 | 0.00 | 94 | 1016.7 |
| 20260506114230 | 71 | 143 | 0.0 | 1.0 | 0.00 | 0.00 | 0.00 | 94 | 1016.7 |
| 20260506113958 | 71 | 153 | 0.0 | 0.0 | 0.00 | 0.00 | 0.00 | 95 | 1016.7 |
| 20260506113218 | 71 | 153 | 1.0 | 3.0 | 0.00 | 0.00 | 0.00 | 94 | 1016.8 |
| 20260506112715 | 71 | 131 | 2.0 | 5.0 | 0.00 | 0.00 | 0.00 | 94 | 1016.8 |
| 20260506112159 | 70 | 164 | 2.0 | 5.0 | 0.00 | 0.00 | 0.00 | 95 | 1016.8 |
| 20260506111931 | 70 | 305 | 2.0 | 9.0 | 0.00 | 0.00 | 0.00 | 95 | 1016.8 |
| 20260506111145 | 69 | 320 | 3.0 | 9.0 | 0.00 | 0.00 | 0.00 | 97 | 1016.7 |
| 20260506110645 | 69 | 333 | 4.0 | 9.0 | 0.00 | 0.00 | 0.00 | 99 | 1016.7 |
| 20260506110417 | 68 | 314 | 5.0 | 10.0 | 0.00 | 0.00 | 0.00 | 99 | 1016.8 |
| 20260506105851 | 68 | 282 | 4.0 | 10.0 | 0.00 | 0.00 | 0.00 | 99 | 1016.6 |
| 20260506105055 | 67 | 306 | 2.0 | 8.0 | 0.00 | 0.00 | 0.00 | 99 | 1016.5 |
| 20260506104813 | 67 | 303 | 1.0 | 7.0 | 0.00 | 0.00 | 0.00 | 99 | 1016.3 |
| 20260506104042 | 66 | 177 | 1.0 | 4.0 | 0.00 | 0.00 | 0.00 | 99 | 1016.3 |
| 20260506103809 | 66 | 40 | 1.0 | 4.0 | 0.00 | 0.00 | 0.00 | 99 | 1016.3 |
| 20260506103036 | 65 | 4 | 0.0 | 2.0 | 0.00 | 0.00 | 0.00 | 99 | 1016.2 |
| 20260506102525 | 65 | 177 | 0.0 | 3.0 | 0.00 | 0.00 | 0.00 | 99 | 1016.1 |
| 20260506102001 | 65 | 74 | 0.0 | 2.0 | 0.00 | 0.00 | 0.00 | 99 | 1015.9 |
| 20260506101439 | 65 | 237 | 1.0 | 3.0 | 0.00 | 0.00 | 0.00 | 99 | 1015.8 |
| 20260506101209 | 65 | 329 | 1.0 | 2.0 | 0.00 | 0.00 | 0.00 | 99 | 1015.8 |
| 20260506100659 | 64 | 268 | 0.0 | 3.0 | 0.00 | 0.00 | 0.00 | 99 | 1015.7 |
| 20260506100420 | 64 | 266 | 0.0 | 3.0 | 0.00 | 0.00 | 0.00 | 99 | 1015.7 |
| 20260506095416 | 64 | 30 | 0.0 | 0.0 | 0.00 | 0.00 | 0.00 | 99 | 1015.7 |
| 20260506094904 | 64 | 30 | 0.0 | 2.0 | 0.00 | 0.00 | 0.00 | 99 | 1015.7 |
| 20260506094633 | 64 | 30 | 1.0 | 3.0 | 0.00 | 0.00 | 0.00 | 99 | 1015.8 |
| 20260506093900 | 64 | 30 | 0.0 | 3.0 | 0.00 | 0.00 | 0.00 | 99 | 1015.8 |
| 20260506093608 | 64 | 130 | 0.0 | 2.0 | 0.00 | 0.00 | 0.00 | 99 | 1015.9 |
| 20260506092836 | 64 | 130 | 0.0 | 2.0 | 0.00 | 0.00 | 0.00 | 99 | 1015.8 |
| 20260506092336 | 64 | 106 | 0.0 | 3.0 | 0.00 | 0.00 | 0.00 | 99 | 1015.7 |
| 20260506091832 | 64 | 106 | 1.0 | 3.0 | 0.00 | 0.00 | 0.00 | 99 | 1015.6 |
| 20260506091335 | 64 | 99 | 1.0 | 3.0 | 0.00 | 0.00 | 0.00 | 99 | 1015.7 |
| 20260506091329 | 63 | 275 | 0.0 | 2.0 | 0.00 | 0.00 | 0.00 | 99 | 1015.6 |
| 20260506090326 | 63 | 349 | 1.0 | 2.0 | 0.00 | 0.00 | 0.00 | 99 | 1015.6 |
| 20260506085819 | 63 | 268 | 1.0 | 3.0 | 0.00 | 0.00 | 0.00 | 99 | 1015.4 |
| 20260506085252 | 63 | 51 | 0.0 | 0.0 | 0.00 | 0.00 | 0.00 | 99 | 1015.5 |
| 20260506084738 | 63 | 51 | 0.0 | 0.0 | 0.00 | 0.00 | 0.00 | 98 | 1015.5 |
| 20260506084238 | 63 | 51 | 0.0 | 0.0 | 0.00 | 0.00 | 0.00 | 98 | 1015.5 |
| 20260506083724 | 63 | 51 | 0.0 | 0.0 | 0.00 | 0.00 | 0.00 | 98 | 1015.4 |
| 20260506083202 | 63 | 51 | 0.0 | 0.0 | 0.00 | 0.00 | 0.00 | 98 | 1015.6 |
| 20260506082935 | 63 | 51 | 0.0 | 0.0 | 0.00 | 0.00 | 0.00 | 98 | 1015.5 |
| 20260506082159 | 63 | 51 | 0.0 | 0.0 | 0.00 | 0.00 | 0.00 | 98 | 1015.4 |